F5IOR-13 Weather Reports


time (UTC)temp
C
wind
direction
speed
KPH
gust
KPH
rain 1hr
cm
rain 24hr
cm
rain mn
cm
humidity
%
barometer
mb
20260506143817 15 253 12.9 32.2 0.13 0.00 0.13 65 981.3
20260506140817 15 241 16.1 30.6 0.13 0.00 0.13 60 981.1
20260506133817 14 230 14.5 32.2 0.33 0.00 0.33 64 981.2
20260506130817 15 240 12.9 27.4 0.33 0.00 0.33 66 981.3
20260506123817 15 240 12.9 27.4 0.33 0.00 0.33 68 981.3
20260506120817 14 244 14.5 29.0 0.33 0.00 0.33 71 981.5
20260506113817 13 250 14.5 29.0 0.33 0.00 0.33 71 981.6
20260506110817 13 258 14.5 29.0 0.23 0.00 0.23 73 981.8
20260506103817 12 259 14.5 29.0 0.23 0.00 0.23 75 981.9
20260506100817 12 259 14.5 27.4 0.23 0.00 0.23 80 981.8
20260506093817 12 259 14.5 27.4 0.23 0.00 0.23 80 981.8
20260506092217 11 258 14.5 25.7 0.23 0.00 0.23 82 981.8
20260506090616 11 257 14.5 25.7 0.23 0.00 0.23 83 981.7
20260506085017 11 255 14.5 25.7 0.23 0.00 0.23 84 981.4
20260506083416 11 256 14.5 24.1 0.23 0.00 0.23 86 981.0
20260506082617 11 256 14.5 24.1 0.23 0.00 0.23 86 981.0
20260506081817 11 248 14.5 24.1 0.91 0.03 0.91 86 981.0
20260506081016 11 241 8.0 17.7 0.91 0.03 0.91 91 981.3
20260506080217 11 241 8.0 17.7 0.91 0.03 0.91 91 981.3
20260506073517 10 252 8.0 17.7 0.91 0.03 0.91 92 981.3
20260505190829 13 277 11.3 29.0 0.36 0.00 0.36 72 980.5
20260505183829 14 279 17.7 30.6 0.36 0.00 0.36 63 980.6
20260505180829 15 274 14.5 27.4 0.36 0.00 0.36 65 980.4
20260505173829 15 215 3.2 19.3 0.36 0.00 0.36 75 979.9
20260505170829 15 145 6.4 19.3 0.36 0.00 0.36 79 979.9
20260505163829 14 188 4.8 38.6 0.74 0.00 0.74 76 980.0
20260505160829 15 215 4.8 38.6 0.74 0.05 0.74 72 979.9
20260505150829 17 240 8.0 25.7 0.74 0.00 0.74 67 980.1